Probability
3 3 0 0 0 0 0 0 0 0 0 0 0 0 0 0 0 0 0 0 0 0 0 0 3 3 6 0 0 0 0 0 0 0 0 0 0 0 0 0 0 0 0
0 0 0 0 0 0 0 0 0 0 0 0 0 0 0 0 0 0 0 0 0 0 0 0 3 0 0 3 3 0 0 0 0 0 0 3 0 0 0 0 0 0 0
0 0 0 0 0 0 0 0 0 0 0 0 0 0 0 0 0 0 0 0 0 0 0 0 0 0 3 6 3 0 0 0 0 0 0 3 0 0 0 0 0 0 0
0 0 0 0 0 0 0 0 0 0 0 0 0 0 0 0 0 0 0 0 0 0 0 0 0 0 3 3 0 0 0 0 0 0 0 0 0 0 0 0 0 0 0
0 0 0 0 0 0 0 0 0 0 0 0 0 0 0 0 0 0 0 0 0 0 0 0 0 0 3 3 0 0 0 0 0 0 0 0 0 0 0 0 0 0 0
0 0 0 0 0 0 0 0 0 0 0 0 0 0 0 0 0 0 0 0 0 0 0 0 0 0 0 0 0 0 0 0 0 0 3 0 0 0 0 0 0 0 0
0 0 0 0 0 0 0 0 0 0 0 0 0 0 0 0 0 0 0 0 0 0 0 0 0 0 0 0 0 0 0 0 0 0 0 0 0 0 0 0 0 0 0
0 0 0 0 0 0 0 0 0 0 0 0 0 0 0 0 0 0 0 0 0 0 0 0 0 0 0 0 0 0 0 0 0 0 0 0 0 0 0 0 0 0 0
0 0 0 0 0 0 0 0 0 0 0 0 0 0 0 0 0 0 0 0 0 0 0 0 0 0 0 0 0 0 0 0 0 0 0 0 0 0 0 0 0 0 0
0 0 0 0 0 0 0 0 0 0 0 0 0 0 0 0 0 0 0 0 0 0 0 0 0 0 0 0 0 0 0 0 0 0 0 0 0 0 0 0 0 0 0
0 0 0 0 0 0 0 0 0 0 0 0 0 0 0 0 0 0 0 0 0 0 0 0 0 0 0 0 0 0 0 0 0 0 0 0 0 0 0 0 0 0 0
0 0 0 0 0 0 0 0 0 0 0 0 0 0 0 0 0 0 0 0 0 0 0 0 0 0 0 0 0 0 0 0 0 0 0 0 0 0 0 0 0 0 0
0 0 0 0 0 0 0 0 0 0 0 0 0 0 0 0 0 0 0 0 0 0 0 0 0 0 0 0 0 0 0 0 0 0 0 0 0 0 0 0 0 0 0
0 0 0 0 0 0 0 0 0 0 0 0 0 0 0 0 0 0 0 0 0 0 0 0 0 0 0 0 0 0 0 0 0 0 0 0 0 0 0 0 0 0 0
0 0 0 0 0 0 0 0 0 0 0 0 0 0 0 0 0 0 0 0 0 0 0 0 0 0 0 0 0 0 0 0 0 0 0 0 0 0 0 0 0 0 0
0 0 0 0 0 0 0 0 0 0 0 0 0 0 0 0 0 0 0 0 0 0 0 0 0 0 0 0 0 0 0 0 0 0 0 0 0 0 0 0 0 0 0
0 0 0 0 0 0 0 0 0 0 0 0 0 0 0 0 0 0 0 0 0 0 0 0 0 0 0 0 0 0 0 0 0 0 0 0 0 0 0 0 0 0 0
0 0 0 0 0 0 0 0 0 0 0 0 0 0 0 0 0 0 0 0 0 0 0 0 0 0 0 0 0 0 0 0 0 0 0 0 0 0 0 0 0 0 0
0 0 0 0 0 0 0 0 0 0 0 0 0 0 0 0 0 0 0 0 0 0 0 0 0 0 0 0 0 0 0 0 0 0 0 0 0 0 0 0 0 0 0
0 0 0 0 0 0 0 0 0 0 0 0 0 0 0 0 0 0 0 0 0 0 0 0 0 0 0 0 0 0 0 0 0 0 0 0 0 0 0 0 0 0 0
0 0 0 0 0 0 0 0 0 0 0 0 0 0 0 0 0 0 0 0 0 0 0 0 0 0 0 0 0 0 0 0 0 0 0 0 0 0 0 0 0 0 0
0 0 0 0 0 0 0 0 0 0 0 0 0 0 0 0 0 0 0 0 0 0 0 0 0 0 0 0 0 0 0 0 0 0 0 0 0 0 0 0 0 0 0
0 0 0 0 0 0 0 0 0 0 0 0 0 0 0 0 0 0 0 0 0 0 0 0 0 0 0 0 0 0 0 0 0 0 0 0 0 0 0 0 0 0 0
0 0 0 0 0 0 0 0 0 0 0 0 0 0 0 0 0 0 0 0 0 0 0 0 0 0 0 0 0 0 0 0 0 0 0 0 0 0 0 0 0 0 0
0 0 0 0 0 0 0 0 0 0 0 0 0 0 0 0 0 0 0 0 0 0 0 0 0 0 0 0 0 0 0 0 0 0 0 0 0 0 0 0 0 0 0
0 0 0 0 0 0 0 0 0 0 0 0 0 0 0 0 0 0 0 0 0 0 0 0 0 0 0 0 0 0 0 0 0 0 0 0 0 0 0 0 0 0 0
Height
5791 5792 5792 5793 5794 5794 5795 5796 5797 5798 5799 5801 5802 5802 5803 5804 5804 5805 5806 5806 5807 5807 5808 5808 5807 5807 5807 5806 5806 5805 5804 5803 5801 5800 5799 5797 5796 5795 5793 5792 5790 5789 5787
5784 5785 5785 5786 5787 5788 5789 5790 5791 5792 5793 5794 5795 5796 5797 5798 5798 5799 5799 5800 5801 5801 5801 5801 5801 5801 5800 5800 5799 5798 5797 5796 5794 5793 5791 5790 5788 5787 5785 5784 5782 5780 5779
5776 5777 5778 5779 5780 5781 5782 5783 5785 5786 5787 5788 5789 5790 5790 5791 5791 5792 5793 5794 5794 5794 5795 5795 5794 5794 5794 5793 5792 5791 5789 5788 5787 5785 5784 5782 5780 5779 5777 5775 5774 5772 5770
5769 5770 5770 5771 5772 5773 5775 5776 5778 5779 5780 5781 5782 5783 5784 5784 5785 5785 5786 5787 5787 5788 5788 5788 5787 5787 5786 5785 5784 5783 5782 5780 5779 5777 5775 5774 5772 5771 5769 5767 5765 5763 5761
5760 5761 5762 5763 5764 5766 5767 5769 5770 5772 5773 5774 5775 5776 5776 5777 5778 5779 5779 5780 5780 5780 5780 5780 5780 5779 5779 5777 5776 5775 5774 5772 5771 5769 5767 5766 5764 5762 5760 5758 5756 5754 5752
5752 5753 5754 5756 5757 5758 5760 5761 5763 5764 5765 5767 5768 5768 5769 5770 5771 5772 5772 5773 5773 5773 5772 5772 5772 5772 5771 5770 5768 5767 5765 5764 5762 5761 5759 5757 5755 5753 5751 5749 5747 5745 5742
5743 5745 5746 5747 5749 5751 5752 5754 5755 5756 5758 5759 5760 5761 5762 5763 5764 5764 5765 5765 5765 5765 5765 5764 5764 5763 5762 5761 5760 5759 5757 5755 5754 5752 5751 5749 5747 5744 5742 5740 5737 5735 5732
5734 5736 5737 5739 5741 5743 5744 5746 5747 5748 5750 5751 5753 5753 5754 5756 5756 5756 5757 5757 5757 5757 5756 5756 5756 5755 5754 5753 5752 5750 5749 5747 5745 5744 5742 5740 5737 5735 5732 5730 5727 5724 5722
5725 5727 5728 5730 5732 5734 5736 5737 5738 5740 5741 5743 5744 5745 5746 5748 5748 5748 5748 5749 5748 5748 5748 5748 5747 5746 5746 5745 5743 5742 5740 5738 5737 5735 5732 5730 5728 5725 5722 5719 5717 5714 5711
5715 5717 5719 5721 5723 5725 5726 5728 5729 5731 5732 5734 5734 5736 5738 5739 5740 5740 5740 5740 5740 5740 5739 5739 5738 5737 5736 5735 5734 5733 5731 5729 5727 5725 5723 5720 5717 5714 5712 5709 5706 5703 5701
5705 5707 5708 5710 5712 5714 5716 5718 5719 5721 5723 5724 5725 5726 5728 5729 5730 5732 5733 5732 5732 5731 5730 5730 5729 5728 5727 5726 5725 5723 5722 5720 5718 5715 5713 5710 5707 5704 5701 5698 5695 5693 5690
5695 5696 5698 5700 5702 5704 5706 5707 5709 5711 5713 5714 5716 5717 5719 5720 5721 5722 5723 5723 5723 5722 5721 5720 5719 5718 5717 5716 5715 5714 5712 5710 5708 5705 5702 5700 5697 5694 5690 5687 5685 5682 5680
5684 5686 5688 5690 5691 5693 5695 5697 5699 5701 5703 5704 5706 5708 5709 5711 5712 5712 5713 5713 5713 5713 5713 5711 5710 5709 5707 5706 5705 5703 5702 5700 5697 5695 5692 5689 5686 5683 5680 5677 5674 5672 5669
5673 5675 5677 5679 5682 5683 5685 5687 5689 5691 5693 5694 5696 5698 5699 5701 5702 5703 5703 5703 5703 5704 5703 5702 5700 5699 5697 5695 5694 5693 5691 5689 5686 5684 5681 5678 5675 5672 5669 5667 5664 5661 5659
5662 5664 5666 5669 5671 5673 5675 5677 5679 5681 5683 5684 5686 5688 5690 5691 5692 5692 5693 5693 5693 5693 5693 5692 5690 5688 5686 5685 5683 5681 5679 5677 5675 5672 5670 5667 5664 5661 5658 5656 5653 5650 5648
5652 5654 5656 5659 5661 5662 5664 5667 5669 5671 5673 5674 5676 5678 5680 5681 5681 5682 5682 5682 5682 5682 5681 5681 5680 5677 5675 5673 5671 5670 5668 5665 5663 5661 5658 5655 5653 5650 5647 5645 5642 5639 5637
5642 5644 5646 5648 5651 5653 5654 5657 5659 5661 5663 5664 5666 5668 5669 5670 5671 5671 5671 5671 5670 5670 5669 5669 5667 5666 5664 5662 5660 5658 5656 5653 5651 5649 5646 5644 5641 5639 5636 5633 5631 5628 5626
5632 5635 5637 5639 5641 5643 5645 5647 5649 5651 5653 5655 5656 5658 5659 5659 5660 5660 5659 5659 5659 5658 5657 5657 5655 5654 5652 5650 5648 5645 5643 5641 5639 5636 5634 5632 5630 5627 5624 5622 5620 5617 5615
5623 5625 5627 5629 5631 5633 5636 5638 5639 5641 5643 5644 5646 5647 5647 5648 5648 5648 5648 5647 5646 5646 5645 5644 5643 5641 5639 5637 5635 5633 5631 5628 5626 5624 5622 5620 5618 5615 5613 5611 5608 5606 5604
5614 5616 5618 5620 5622 5624 5626 5627 5629 5631 5632 5634 5635 5636 5636 5636 5636 5636 5636 5635 5634 5634 5633 5631 5630 5628 5627 5624 5622 5621 5618 5616 5614 5612 5610 5608 5606 5604 5601 5599 5597 5595 5593
5604 5606 5608 5610 5612 5613 5615 5617 5619 5620 5622 5623 5624 5624 5625 5625 5625 5624 5624 5623 5622 5621 5620 5618 5617 5615 5614 5612 5610 5608 5606 5604 5602 5600 5599 5597 5595 5593 5591 5588 5586 5584 5582
5594 5596 5598 5600 5601 5603 5605 5606 5608 5610 5611 5612 5613 5613 5613 5613 5613 5612 5611 5610 5609 5608 5607 5605 5604 5603 5601 5599 5597 5595 5594 5593 5592 5590 5587 5586 5584 5582 5580 5578 5576 5574 5572
5584 5585 5587 5589 5591 5593 5594 5596 5597 5599 5600 5601 5601 5601 5601 5601 5600 5599 5599 5598 5597 5595 5594 5593 5592 5590 5589 5587 5586 5584 5583 5581 5581 5579 5577 5576 5573 5572 5570 5568 5566 5564 5562
5574 5575 5577 5578 5580 5582 5583 5585 5586 5588 5589 5590 5590 5589 5589 5589 5588 5587 5587 5586 5585 5584 5583 5582 5581 5579 5578 5576 5574 5573 5572 5571 5570 5569 5567 5566 5564 5562 5560 5558 5556 5554 5552
5563 5565 5566 5567 5569 5571 5572 5574 5575 5576 5577 5578 5578 5578 5578 5577 5576 5575 5575 5575 5574 5573 5571 5570 5569 5568 5566 5565 5564 5563 5562 5561 5560 5559 5557 5555 5554 5552 5550 5548 5546 5544 5542
5552 5554 5555 5557 5558 5560 5561 5562 5563 5565 5566 5567 5567 5566 5566 5566 5565 5564 5564 5563 5563 5562 5560 5560 5559 5558 5556 5555 5554 5553 5552 5551 5550 5549 5547 5546 5544 5542 5541 5539 5537 5535 5532
Wind_Speed
29 28 28 28 28 28 27 27 27 27 27 27 27 28 28 27 27 28 28 27 27 27 28 28 28 27 28 29 30 30 30 31 31 32 32 32 32 32 32 33 33 33 33
30 30 30 30 30 30 29 28 28 28 28 28 28 29 29 29 28 29 29 29 29 29 28 29 29 29 30 31 31 32 32 33 33 33 34 33 33 34 34 34 35 35 35
32 31 31 31 31 31 31 31 30 30 29 30 30 30 30 30 30 30 30 30 30 30 30 30 30 31 31 32 33 33 33 33 33 34 34 35 35 35 35 36 36 37 37
33 33 32 32 32 32 32 32 31 31 31 31 31 30 31 31 31 31 31 31 31 30 31 32 32 32 32 33 33 34 35 35 35 35 36 36 36 36 37 37 37 38 38
34 34 33 33 33 33 33 33 33 32 33 32 32 31 32 32 32 32 32 32 32 31 32 32 33 33 34 34 35 35 36 37 37 37 37 37 37 38 38 38 38 38 39
35 35 34 34 34 34 34 34 34 34 33 34 34 33 33 32 32 32 32 33 33 33 33 33 34 35 36 36 36 37 37 37 37 38 38 38 38 38 38 39 39 40 40
36 35 34 35 35 35 34 34 34 34 34 34 33 33 33 33 33 34 34 33 34 34 34 35 35 36 37 37 37 38 37 37 38 38 39 39 39 39 40 40 41 41 42
38 37 36 36 35 35 36 36 35 35 35 34 34 35 35 35 35 35 35 34 34 34 34 35 36 36 37 37 37 37 37 38 39 40 40 41 41 41 42 43 43 43 43
40 39 38 37 37 37 37 37 37 37 36 36 36 36 36 36 35 34 34 34 34 35 35 36 37 37 38 37 38 38 38 39 40 41 42 42 43 43 44 44 43 44 43
41 40 40 40 40 39 39 39 39 39 38 38 38 38 38 37 35 35 35 35 36 36 37 37 38 38 39 39 39 39 39 41 42 43 43 44 44 44 44 44 44 44 42
42 41 41 41 40 40 40 40 40 40 40 39 39 39 38 37 36 36 36 36 37 37 38 38 39 39 39 39 40 40 41 42 43 44 44 45 45 45 45 45 44 43 42
42 42 42 42 41 41 40 39 39 39 39 40 39 40 39 38 38 37 38 38 38 38 39 39 40 40 40 40 41 41 42 42 43 44 45 45 45 45 45 45 44 43 43
42 42 41 41 42 41 41 41 40 40 39 40 40 39 39 40 39 39 40 40 40 40 40 40 41 41 41 41 42 42 42 43 43 44 45 44 44 44 44 43 43 43 43
43 43 42 41 41 41 41 41 41 41 41 40 40 39 39 40 40 40 41 41 41 40 40 41 42 42 42 42 43 43 43 44 44 44 44 44 44 44 43 43 43 43 43
42 42 42 41 41 41 41 41 41 41 41 40 40 39 39 39 40 40 41 42 42 42 42 42 43 44 44 44 45 44 44 44 45 45 45 45 44 44 44 44 44 44 43
41 41 41 41 42 42 42 41 41 41 40 40 40 40 40 40 41 41 42 43 43 44 44 44 44 45 45 45 45 46 45 45 46 46 45 45 44 44 44 44 44 44 43
40 40 39 40 41 41 41 41 41 41 41 40 40 40 41 42 42 42 43 44 44 44 44 44 44 45 45 46 46 47 47 47 47 46 46 45 45 45 45 45 44 44 43
38 37 37 38 39 39 39 40 40 40 40 40 41 41 42 42 43 43 44 44 44 44 45 44 44 44 45 45 46 47 47 47 47 47 46 45 45 45 45 44 44 44 43
37 37 37 37 38 38 39 39 40 40 40 40 41 41 42 43 43 44 44 44 45 45 45 45 44 45 45 46 46 46 47 46 46 46 45 45 45 45 45 43 43 43 42
37 37 37 37 38 39 39 40 41 41 41 41 42 42 43 43 44 44 45 45 45 45 45 45 45 45 45 45 45 45 45 45 45 45 45 44 44 44 43 42 42 41 41
38 38 38 38 38 39 39 40 41 41 42 42 43 43 43 43 43 44 44 45 45 46 46 46 46 45 45 45 45 44 44 43 43 43 43 43 42 42 41 40 40 39 38
38 38 38 39 39 39 40 40 41 41 42 42 42 43 44 43 44 44 44 44 45 45 45 44 45 45 44 44 45 43 42 41 41 41 40 40 40 39 39 38 38 37 37
37 38 39 39 39 39 40 40 41 41 41 41 42 43 43 43 43 43 43 43 43 43 43 42 42 42 42 42 42 40 40 39 39 39 38 37 37 37 37 36 36 36 35
37 38 39 40 39 39 39 40 41 41 41 41 42 42 42 42 42 42 42 42 41 41 41 41 41 40 40 40 39 39 38 38 38 38 37 36 36 36 36 35 35 35 35
38 38 38 38 38 38 38 39 40 41 41 41 41 41 41 41 41 41 40 39 39 40 40 39 39 39 39 39 38 37 37 37 36 36 36 36 36 35 35 35 35 35 35
38 38 38 38 38 37 38 38 40 40 41 41 40 40 41 41 40 40 39 39 39 39 38 38 38 38 37 37 37 37 36 36 36 35 35 35 35 35 34 34 33 33 33
Wind_Direction
261 262 264 265 264 263 263 263 263 264 265 265 265 265 268 269 269 270 270 270 269 270 271 272 274 276 277 279 281 283 283 283 284 285 286 286 286 285 286 286 286 287 287
261 262 264 265 264 262 262 262 262 264 265 266 267 267 269 270 272 272 271 271 271 271 271 272 274 277 279 280 281 283 284 284 284 285 286 286 286 286 286 286 286 287 288
260 263 264 264 263 262 262 263 262 263 263 265 267 268 269 271 272 272 270 271 271 271 272 274 276 277 279 281 282 283 284 284 286 287 287 287 287 288 288 288 288 288 288
260 262 263 263 263 262 262 263 262 263 263 266 268 269 270 271 271 272 270 271 271 272 273 275 277 278 279 282 283 282 283 284 286 288 288 289 289 290 290 290 290 290 290
260 262 263 262 262 263 263 263 261 263 264 264 265 268 271 271 270 270 271 271 271 271 273 275 276 278 280 282 283 283 284 285 286 288 289 290 291 291 291 291 291 291 291
259 261 261 261 261 263 263 263 262 264 264 264 265 267 269 269 269 271 271 271 273 273 273 274 276 277 280 282 283 284 284 285 286 288 289 290 291 292 292 292 291 291 291
258 260 260 261 261 262 262 262 264 263 263 263 264 265 266 268 268 270 270 270 273 274 275 276 277 279 280 282 283 284 284 285 286 288 288 289 290 291 292 292 292 292 292
256 258 258 259 260 261 261 261 262 262 262 262 263 265 265 267 268 270 270 272 273 274 275 277 278 279 281 283 283 283 283 284 286 288 288 289 289 290 291 292 292 292 292
255 257 257 258 259 260 261 260 260 261 262 262 263 264 265 266 267 269 269 272 274 275 276 277 278 280 281 283 284 283 284 285 286 288 288 289 290 290 291 291 291 292 291
253 256 256 256 258 259 259 259 260 260 261 262 264 264 265 266 268 268 270 273 274 275 276 277 278 280 282 283 283 283 284 285 287 288 289 290 291 291 291 291 291 291 290
253 255 255 256 258 258 259 259 259 259 260 262 263 263 264 267 268 269 270 272 274 275 277 278 278 279 280 282 283 284 285 286 287 288 289 290 291 291 291 291 291 291 290
253 254 255 256 257 257 257 257 258 259 260 261 262 262 264 266 268 269 271 272 273 275 276 278 279 279 281 282 283 284 285 287 288 289 290 290 290 291 291 290 290 290 289
252 253 254 255 256 256 257 258 259 259 260 260 262 263 265 266 267 270 271 272 273 275 276 278 279 280 281 281 282 284 285 286 287 288 289 289 290 290 289 290 289 289 289
252 253 254 255 256 257 257 257 258 259 260 260 261 262 265 267 269 271 272 274 275 276 277 279 280 281 281 281 282 283 285 286 286 287 288 288 288 289 289 289 290 290 289
253 253 254 255 256 257 256 257 258 260 259 260 261 263 266 268 270 271 274 275 276 277 278 279 281 281 282 283 283 284 285 285 286 286 287 288 288 288 288 288 289 289 289
254 255 255 255 255 256 256 258 259 259 259 260 261 263 265 268 271 273 275 276 278 279 279 280 281 281 281 282 284 284 284 285 285 286 286 287 287 287 287 288 288 288 288
255 254 254 255 255 255 256 258 259 259 260 261 263 264 266 268 270 273 275 277 278 279 280 281 282 282 282 282 283 284 284 284 284 284 286 285 285 286 287 288 287 287 287
255 254 255 255 255 256 256 257 258 260 261 262 264 266 267 269 271 273 275 277 277 278 280 281 282 282 282 282 283 284 284 285 285 285 285 285 286 287 287 287 287 286 286
254 256 257 257 256 256 256 257 258 259 261 263 264 266 268 269 271 273 275 276 277 278 280 281 282 282 282 282 284 284 285 285 285 284 285 286 286 286 286 286 285 286 285
255 256 256 256 256 256 256 257 259 260 261 263 265 266 268 270 272 273 275 276 277 278 279 281 281 282 282 283 284 285 284 284 284 284 285 285 285 285 285 285 285 285 285
255 256 256 256 256 257 258 259 259 260 262 264 266 268 269 270 272 274 275 275 276 278 279 280 282 282 282 283 284 284 284 283 283 284 285 285 285 285 285 286 286 286 285
255 257 258 257 257 258 259 260 261 262 264 266 268 269 270 271 273 274 276 277 278 279 281 281 282 282 283 283 284 284 283 283 284 284 285 285 285 285 286 287 286 287 286
257 257 257 258 259 258 259 261 261 262 265 267 269 270 271 272 273 274 276 277 278 279 280 281 282 282 283 283 284 284 283 284 284 285 285 285 286 286 288 287 287 287 287
256 257 258 259 259 259 260 260 261 262 265 267 269 271 272 273 274 275 276 276 277 279 280 281 283 282 282 283 283 283 283 283 284 285 285 285 285 286 287 287 287 287 287
257 257 257 257 259 260 261 261 262 262 264 267 269 271 272 273 275 275 275 276 277 279 280 282 283 282 282 283 283 283 283 283 284 284 284 285 285 285 286 287 287 286 286
257 258 258 258 258 259 260 262 263 264 265 267 269 270 271 272 273 274 273 274 276 278 280 281 282 282 281 282 282 283 282 283 284 285 284 285 286 285 286 287 287 286 286